• Join FlightAware (Why Join?)
  • Login
  • US Flag 
07:53PM EST


 

Airport Tracker/Info


-or-


 

Live Flight TrackerFlight Track Log ✈ ASQ5967 ✈ 01-May-2013 ✈ KBUF - KORD

Flight Track Log - Related Links

Times and Time Zones

All times are in EDT time to prevent confusion due to time zone crossing. See the ASQ5967 flight status page for this flight to view local times or setup timezone preferences in your user account.

Time Position Orientation Groundspeed Altitude Reporting Facility
EDT Latitude Longitude Course Direction KTS MPH feet Rate Location/Type
10:11AM 42.9333 -78.7500 228° Southwest 158 182 1,400  Level Buffalo TRACON
10:12AM 42.9000 -78.8000 228° Southwest 191 220 3,400 1,684 Climbing Buffalo TRACON
10:13AM 42.9000 -78.8833 270° West 252 290 4,600 1,657 Climbing Buffalo TRACON
10:14AM 42.9000 -78.9333 270° West 260 299 6,300 2,400 Climbing Toronto Center
10:15AM 42.9167 -79.0333 283° West 270 311 8,800 2,150 Climbing Toronto Center
10:16AM 42.9167 -79.1333 270° West 280 322 10,600 1,800 Climbing Toronto Center
10:17AM 42.9167 -79.2500 270° West 290 334 12,400 1,800 Climbing Toronto Center
10:18AM 42.9333 -79.3667 281° West 300 345 14,200 1,750 Climbing Toronto Center
10:19AM 42.9333 -79.4667 270° West 310 357 15,900 1,800 Climbing Toronto Center
10:20AM 42.9500 -79.6167 279° West 310 357 17,800 1,550 Climbing Toronto Center
10:21AM 42.9500 -79.7167 270° West 310 357 19,000 1,100 Climbing Toronto Center
10:22AM 42.9667 -79.8333 281° West 320 368 20,000 1,000 Climbing Toronto Center
10:23AM 42.9667 -79.9667 270° West 350 403 21,000 1,200 Climbing Toronto Center
10:24AM 42.9667 -80.1167 270° West 360 414 22,400 1,600 Climbing Toronto Center
10:25AM 42.9500 -80.2500 260° West 360 414 24,200 1,550 Climbing Toronto Center
10:26AM 42.9500 -80.3833 270° West 350 403 25,500 1,100 Climbing Toronto Center
10:27AM 42.9500 -80.5000 270° West 360 414 26,400 950 Climbing Toronto Center
10:28AM 42.9500 -80.6500 270° West 360 414 27,400 1,000 Climbing Toronto Center
10:29AM 42.9500 -80.8000 270° West 370 426 28,400 1,000 Climbing Toronto Center
10:30AM 42.9333 -80.9333 260° West 370 426 29,400 950 Climbing Toronto Center
10:31AM 42.9333 -81.0667 270° West 370 426 30,300 950 Climbing Toronto Center
10:32AM 42.9500 -81.2333 278° West 370 426 31,300 950 Climbing Toronto Center
10:33AM 42.9500 -81.3667 270° West 380 437 32,200 900 Climbing Toronto Center
10:34AM 42.9500 -81.5000 270° West 380 437 33,100 1,000 Climbing Toronto Center
10:35AM 42.9500 -81.6667 270° West 380 437 34,200 1,000 Climbing Toronto Center
10:36AM 42.9667 -81.8000 280° West 380 437 35,100 850 Climbing Toronto Center
10:37AM 42.9500 -81.9333 260° West 380 437 35,900 450 Climbing Toronto Center
10:38AM 42.9500 -82.0667 270° West 380 437 36,000 50 Climbing Toronto Center
10:39AM 42.9500 -82.2333 270° West 400 460 36,000  Level Toronto Center
10:40AM 42.9667 -82.3833 279° West 410 472 36,000  Level Toronto Center
10:41AM 42.9667 -82.5500 270° West 420 483 36,000  Level Toronto Center
10:42AM 42.9683 -82.6914 271° West 426 490 36,000  Level Cleveland Center
10:43AM 42.9692 -82.8531 270° West 431 496 36,000  Level Cleveland Center
10:44AM 42.9700 -83.0178 270° West 431 496 36,000  Level Cleveland Center
10:45AM 42.9708 -83.1794 270° West 436 502 36,000 -250 Level Cleveland Center
10:46AM 42.9608 -83.3381 265° West 436 502 35,500 -650 Descending Cleveland Center
10:47AM 42.9528 -83.4994 266° West 436 502 34,700 -900 Descending Cleveland Center
10:48AM 42.9400 -83.6661 264° West 436 502 33,700 -1,000 Descending Cleveland Center
10:49AM 42.9314 -83.8331 266° West 441 507 32,700 -850 Descending Cleveland Center
10:50AM 42.9203 -83.9997 265° West 441 507 32,000 -350 Descending Cleveland Center
10:51AM 42.9086 -84.1778 265° West 441 507 32,000  Level Cleveland Center
10:52AM 42.9003 -84.3106 265° West 441 507 32,000  Level Cleveland Center
10:53AM 42.8886 -84.5203 266° West 437 503 32,000  Level Chicago Center
10:54AM 42.8739 -84.6842 263° West 436 502 32,000  Level Chicago Center
10:55AM 42.8564 -84.8503 262° West 442 509 32,000  Level Chicago Center
10:56AM 42.8383 -85.0150 262° West 440 506 32,000  Level Chicago Center
10:57AM 42.8206 -85.1794 262° West 440 506 32,000  Level Chicago Center
10:58AM 42.7997 -85.3767 262° West 439 505 32,000 -677 Level Chicago Center
10:59AM 42.7794 -85.5428 261° West 443 510 30,600 -1,887 Descending Chicago Center
11:00AM 42.7489 -85.7081 256° West 446 513 28,100 -2,468 Descending Chicago Center
11:01AM 42.7183 -85.8739 256° West 449 517 25,500 -2,537 Descending Chicago Center
11:02AM 42.6881 -86.0386 256° West 446 513 22,900 -2,488 Descending Chicago Center
11:03AM 42.6594 -86.1975 256° West 436 502 20,400 -1,403 Descending Chicago Center
11:04AM 42.6314 -86.3450 256° West 410 472 20,000 -774 Descending Chicago Center
11:05AM 42.6033 -86.4922 256° West 403 464 18,800 -1,366 Descending Chicago Center
11:06AM 42.5761 -86.6389 256° West 403 464 17,200 -1,902 Descending Chicago Center
11:07AM 42.5425 -86.7978 254° West 373 429 14,900 -2,323 Descending Chicago Center
11:08AM 42.5061 -86.9247 249° West 363 418 12,400 -2,195 Descending Chicago Center
11:09AM 42.4733 -87.0483 250° West 350 403 10,400 -1,220 Descending Chicago Center
11:11AM 42.4417 -87.1631 250° West 329 379 9,900 -677 Descending Chicago Center
11:12AM 42.4164 -87.2619 251° West 280 322 9,000 -1,220 Descending Chicago Center
11:13AM 42.3950 -87.3572 253° West 269 310 7,400 -976 Descending Chicago Center
11:14AM 42.3683 -87.4531 249° West 261 300 7,000 -194 Descending Chicago Center
11:15AM 42.3169 -87.5464 233° Southwest 268 308 7,000 -49 Level Chicago Center
11:16AM 42.2631 -87.6008 217° Southwest 264 304 6,900 -439 Descending Chicago Center
11:17AM 42.2094 -87.6622 220° Southwest 255 293 6,100 -1,016 Descending Chicago Center
11:18AM 42.1608 -87.7161 219° Southwest 232 267 4,800 -1,243 Descending Chicago Center
11:19AM 42.1167 -87.7667 220° Southwest 204 235 3,800 -1,101 Descending Chicago TRACON
11:20AM 42.0833 -87.8000 217° Southwest 183 211 2,800 -950 Descending Chicago TRACON
11:21AM 42.0500 -87.8500 228° Southwest 157 181 1,900 -800 Descending Chicago TRACON
11:22AM 42.0167 -87.8833 217° Southwest 130 150 1,200 -700 Descending Chicago TRACON
11:24AM 41.9817 -87.9067 206° Southwest  Level Estimated